Weather History for KVIH - April, 2014

Change the Weather History Date:

Friday, April 18, 2014

  Actual Average Record
Temperature  
Mean Temperature 55 °F 56 °F  
Max Temperature 71 °F 68 °F 88 °F (1954)
Min Temperature 39 °F 45 °F 25 °F (1953)
Degree Days  
Heating Degree Days 10 10  
Month to date heating degree days 235 219  
Since 1 July heating degree days 5292 4623  
Cooling Degree Days 0 1  
Month to date cooling degree days 7 12  
Year to date cooling degree days 7 16  
Growing Degree Days 5 (Base 50)    
Moisture  
Dew Point 40 °F    
Average Humidity 61    
Maximum Humidity 89    
Minimum Humidity 33    
Precipitation  
Precipitation 0.00 in 0.14 in 1.54 in (2013)
Month to date precipitation 2.14 2.42  
Year to date precipitation 4.31 9.97  
Sea Level Pressure  
Sea Level Pressure 30.24 in    
Wind  
Wind Speed 5 mph (NE)    
Max Wind Speed 12 mph    
Max Gust Speed 14 mph    
Visibility 10 miles    
Events      
T = Trace of Precipitation, MM = Missing Value Source: NWS Daily Summary

Daily Weather History Graph

Daily Weather History Graph

Search for Another Location

Airport or City:

Trip Planner

Search our weather history database for the weather conditions in past years. The results will help you decide how hot, cold, wet, or windy it might be!

Date:

Astronomy

Apr. 18, 2014 Rise Set
Actual Time 6:27 AM CDT 7:46 PM CDT
Civil Twilight 5:59 AM CDT 8:13 PM CDT
Nautical Twilight 5:27 AM CDT 8:46 PM CDT
Astronomical Twilight 4:52 AM CDT 9:20 PM CDT
Moon 11:29 PM CDT (4/18) 8:51 AM CDT (4/18)
Length of Visible Light 14h 13m
Length of Day
13h 18m
Waning Gibbous, 87% of the Moon is Illuminated
Apr 18
Waning Gibbous
Apr 22
Last Quarter
Apr 29
New
May 6
First Quarter
May 14
Full

Hourly Weather History & Observations

Time (CDT) Temp. Windchill Dew Point Humidity Pressure Visibility Wind Dir Wind Speed Gust Speed Precip Events Conditions
12:53 AM 45.0 °F 43.5 °F 39.9 °F 82% 30.26 in 9.0 mi NNW 3.5 mph - N/A   Mostly Cloudy
1:53 AM 41.0 °F - 37.0 °F 86% 30.25 in 8.0 mi Calm Calm - N/A   Partly Cloudy
2:53 AM 41.0 °F 39.0 °F 37.0 °F 86% 30.25 in 9.0 mi NNW 3.5 mph - N/A   Mostly Cloudy
3:53 AM 41.0 °F - 37.9 °F 89% 30.25 in 8.0 mi Calm Calm - N/A   Mostly Cloudy
4:53 AM 41.0 °F 37.1 °F 37.9 °F 89% 30.25 in 9.0 mi North 5.8 mph - N/A   Overcast
5:53 AM 43.0 °F 41.3 °F 39.0 °F 86% 30.27 in 9.0 mi NNE 3.5 mph - N/A   Overcast
6:53 AM 41.0 °F 37.1 °F 37.9 °F 89% 30.28 in 8.0 mi NE 5.8 mph - N/A   Mostly Cloudy
7:53 AM 46.0 °F 41.9 °F 39.0 °F 76% 30.29 in 9.0 mi NE 8.1 mph - N/A   Clear
8:53 AM 51.1 °F - 39.9 °F 66% 30.30 in 10.0 mi East 6.9 mph - N/A   Clear
9:53 AM 55.0 °F - 41.0 °F 59% 30.30 in 10.0 mi East 6.9 mph - N/A   Clear
10:53 AM 59.0 °F - 41.0 °F 51% 30.31 in 10.0 mi Variable 4.6 mph - N/A   Clear
11:53 AM 62.1 °F - 42.1 °F 48% 30.29 in 10.0 mi Calm Calm - N/A   Clear
12:53 PM 64.9 °F - 42.1 °F 43% 30.27 in 10.0 mi Variable 6.9 mph - N/A   Clear
1:53 PM 66.9 °F - 42.1 °F 40% 30.26 in 10.0 mi North - - N/A   Clear
2:53 PM 69.1 °F - 42.1 °F 38% 30.23 in 10.0 mi West 4.6 mph - N/A   Clear
3:53 PM 69.1 °F - 41.0 °F 36% 30.21 in 10.0 mi Calm Calm - N/A   Partly Cloudy
4:53 PM 69.1 °F - 39.9 °F 35% 30.19 in 10.0 mi NNE 6.9 mph - N/A   Clear
5:53 PM 68.0 °F - 39.0 °F 35% 30.18 in 10.0 mi ENE 5.8 mph - N/A   Clear
6:53 PM 66.2 °F - 41.0 °F 40% 30.17 in 10.0 mi NE 4.6 mph - N/A   Clear
7:53 PM 59.0 °F - 42.1 °F 53% 30.18 in 10.0 mi ENE 5.8 mph - N/A   Clear
8:53 PM 57.0 °F - 39.9 °F 53% 30.19 in 10.0 mi East 6.9 mph - N/A   Clear
9:53 PM 55.4 °F - 39.2 °F 54% 30.21 in 10.0 mi East 6.9 mph - N/A   Clear
10:53 PM 54.0 °F - 39.9 °F 59% 30.21 in 10.0 mi East 8.1 mph - N/A   Clear
11:53 PM 54.0 °F - 39.9 °F 59% 30.22 in 10.0 mi ESE 6.9 mph - N/A   Clear